User: anonymous   Login
Location: Unspecified
(0.0000°N, 0.0000°E)
Time: 08:59:42
(UTC+01:00)
Language:

Ariane H10 - Orbit

View from above orbital plane
View from above orbital plane
View from above satellite
View from above satellite

Ground track
Ground track

The orbit data is extracted from the following two-line orbital elements,

1 21727U 91067B   17081.74396622 +.00000143 +00000-0 +37668-3 0  9999
2 21727 004.6179 007.2012 7180132 080.2605 347.3941 02.31898857175952
Epoch (UTC): 22 March 2017 17:51:18
Eccentricity: 0.7180132
inclination: 4.6179°
perigee height: 420 km
apogee height: 35043 km
right ascension of ascending node: 7.2012°
argument of perigee: 80.2605°
revolutions per day: 2.31898857
mean anomaly at epoch: 347.3941°
orbit number at epoch: 17595

The dashed part of the orbit path shows where the satellite is in the earth's shadow,  

DLR